TimeEST,TemperatureF,Dew PointF,Humidity,Sea Level PressureIn,VisibilityMPH,Wind Direction,Wind SpeedMPH,Gust SpeedMPH,PrecipitationIn,Events,Conditions,WindDirDegrees,DateUTC
12:53 AM,53.1,37.9,57,30.16,10.0,Variable,4.6,-,N/A,,Overcast,0,2013-03-04 05:53:00
1:53 AM,53.1,39.0,59,30.16,10.0,North,4.6,-,N/A,,Mostly Cloudy,360,2013-03-04 06:53:00
2:53 AM,53.1,39.0,59,30.14,10.0,NNW,5.8,-,N/A,,Overcast,340,2013-03-04 07:53:00
3:53 AM,50.0,39.9,68,30.14,10.0,NNE,13.8,-,N/A,,Partly Cloudy,20,2013-03-04 08:53:00
4:53 AM,48.9,35.1,59,30.16,10.0,NE,10.4,-,N/A,,Clear,50,2013-03-04 09:53:00
5:53 AM,48.9,35.1,59,30.18,10.0,NE,9.2,-,N/A,,Clear,50,2013-03-04 10:53:00
6:53 AM,48.9,35.1,59,30.20,10.0,NNE,10.4,-,N/A,,Clear,30,2013-03-04 11:53:00
7:53 AM,50.0,33.1,52,30.23,10.0,ENE,12.7,-,N/A,,Clear,60,2013-03-04 12:53:00
8:53 AM,51.1,32.0,48,30.24,10.0,ENE,13.8,-,N/A,,Clear,60,2013-03-04 13:53:00
9:53 AM,53.1,34.0,48,30.24,10.0,ENE,11.5,-,N/A,,Clear,60,2013-03-04 14:53:00
10:53 AM,55.0,33.1,43,30.24,10.0,ENE,6.9,-,N/A,,Clear,70,2013-03-04 15:53:00
11:53 AM,55.9,34.0,44,30.22,10.0,East,8.1,-,N/A,,Clear,80,2013-03-04 16:53:00
12:53 PM,59.0,35.1,41,30.19,10.0,NE,9.2,-,N/A,,Clear,50,2013-03-04 17:53:00
1:53 PM,59.0,36.0,42,30.16,10.0,SE,5.8,-,N/A,,Clear,130,2013-03-04 18:53:00
2:53 PM,61.0,35.1,38,30.14,10.0,SSE,6.9,-,N/A,,Clear,160,2013-03-04 19:53:00
3:53 PM,60.1,41.0,49,30.14,10.0,SW,10.4,-,N/A,,Clear,230,2013-03-04 20:53:00
4:53 PM,59.0,39.9,49,30.14,10.0,West,9.2,-,N/A,,Clear,270,2013-03-04 21:53:00
5:53 PM,59.0,41.0,51,30.16,10.0,WNW,8.1,-,N/A,,Clear,300,2013-03-04 22:53:00
6:53 PM,57.0,39.9,53,30.16,10.0,NNW,9.2,-,N/A,,Clear,330,2013-03-04 23:53:00
7:53 PM,55.0,39.9,57,30.16,10.0,North,5.8,-,N/A,,Clear,360,2013-03-05 00:53:00
8:53 PM,55.0,41.0,59,30.16,10.0,NNE,5.8,-,N/A,,Clear,20,2013-03-05 01:53:00
9:53 PM,55.0,43.0,64,30.17,10.0,North,3.5,-,N/A,,Clear,360,2013-03-05 02:53:00
10:53 PM,55.0,43.0,64,30.18,10.0,Calm,Calm,-,N/A,,Clear,0,2013-03-05 03:53:00
11:53 PM,55.9,39.9,55,30.17,10.0,East,6.9,-,N/A,,Clear,90,2013-03-05 04:53:00